TimeEDT,TemperatureF,Dew PointF,Humidity,Sea Level PressureIn,VisibilityMPH,Wind Direction,Wind SpeedMPH,Gust SpeedMPH,PrecipitationIn,Events,Conditions,WindDirDegrees,DateUTC
12:51 AM,55.9,42.1,60,30.05,-9999.0,SW,5.8,-,N/A,,Unknown,230,2013-09-15 04:51:00
1:51 AM,55.0,43.0,64,30.04,-9999.0,SW,3.5,-,N/A,,Unknown,220,2013-09-15 05:51:00
2:51 AM,55.0,44.1,67,30.03,-9999.0,SSW,5.8,-,N/A,,Unknown,210,2013-09-15 06:51:00
3:51 AM,54.0,44.1,69,30.04,-9999.0,SSW,3.5,-,N/A,,Unknown,210,2013-09-15 07:51:00
4:51 AM,54.0,45.0,72,30.04,-9999.0,SW,4.6,-,N/A,,Unknown,220,2013-09-15 08:51:00
5:51 AM,54.0,45.0,72,30.04,-9999.0,SW,5.8,-,N/A,,Unknown,220,2013-09-15 09:51:00
6:51 AM,54.0,44.1,69,30.06,-9999.0,SSW,5.8,-,N/A,,Unknown,210,2013-09-15 10:51:00
7:51 AM,55.0,44.1,67,30.06,-9999.0,SW,6.9,-,N/A,,Unknown,230,2013-09-15 11:51:00
8:51 AM,55.9,45.0,67,30.05,-9999.0,SW,5.8,-,N/A,,Unknown,220,2013-09-15 12:51:00
9:51 AM,57.9,44.1,60,30.04,-9999.0,SW,4.6,-,N/A,,Unknown,220,2013-09-15 13:51:00
10:51 AM,60.1,44.1,55,30.04,-9999.0,Variable,4.6,-,N/A,,Unknown,0,2013-09-15 14:51:00
11:51 AM,61.0,45.0,56,30.04,-9999.0,SW,4.6,-,N/A,,Unknown,230,2013-09-15 15:51:00
12:51 PM,62.1,45.0,53,30.04,-9999.0,Variable,3.5,-,N/A,,Unknown,0,2013-09-15 16:51:00
1:51 PM,62.1,46.0,56,30.04,-9999.0,WSW,5.8,-,N/A,,Unknown,240,2013-09-15 17:51:00
2:51 PM,63.0,46.9,56,30.04,-9999.0,Variable,5.8,-,N/A,,Unknown,0,2013-09-15 18:51:00
3:51 PM,59.0,52.0,78,30.04,-9999.0,Variable,4.6,-,0.01,,Unknown,0,2013-09-15 19:51:00
4:51 PM,57.9,53.1,84,30.04,-9999.0,Calm,Calm,-,0.01,,Unknown,0,2013-09-15 20:51:00
5:51 PM,57.0,54.0,89,30.05,-9999.0,Variable,3.5,-,0.05,,Unknown,0,2013-09-15 21:51:00
6:51 PM,57.0,54.0,89,30.05,-9999.0,Variable,4.6,-,0.06,,Unknown,0,2013-09-15 22:51:00
7:51 PM,55.9,54.0,93,30.06,-9999.0,SW,3.5,-,0.05,,Unknown,220,2013-09-15 23:51:00
8:51 PM,55.9,54.0,93,30.07,-9999.0,SW,6.9,-,N/A,,Unknown,230,2013-09-16 00:51:00
9:51 PM,55.0,53.1,93,30.07,-9999.0,Variable,4.6,-,N/A,,Unknown,0,2013-09-16 01:51:00
10:51 PM,55.0,53.1,93,30.08,-9999.0,WSW,5.8,-,N/A,,Unknown,240,2013-09-16 02:51:00
11:51 PM,55.0,53.1,93,30.08,-9999.0,WSW,5.8,-,N/A,,Unknown,250,2013-09-16 03:51:00